Theta_e
330 330 332 330 329 328 327 326 325 323 320 318 317 315 312 310 308 306 305 304 302 301 300 300 298 298 297 296 295 295 294 294 294 294 295 296 300 303 310 316 318 320 321 323 325 327 328 328 328 328 327 326 326 325 324 323 321 320 319 319 319 318 317 317 317 317 317 317 317 317 317 316 316 317 317 317 317 318 318 319 320 320 321 321 322
330 329 330 329 329 328 327 326 324 323 321 318 318 315 312 310 308 306 304 303 302 301 299 298 297 296 296 295 294 293 294 293 293 293 293 294 295 297 302 309 314 317 318 319 321 322 324 325 326 327 327 327 326 324 322 321 320 320 319 318 317 318 317 317 316 316 315 315 315 316 316 316 315 315 316 316 316 316 316 316 317 318 319 319 320
330 329 328 329 328 327 327 326 324 324 321 319 318 315 312 310 307 304 303 302 301 300 298 297 296 295 295 294 293 294 293 293 293 293 292 293 293 294 296 300 307 312 314 316 318 318 320 321 323 323 324 325 324 323 322 320 318 318 318 317 316 316 317 316 315 314 314 314 314 314 314 314 315 315 315 315 315 315 315 315 316 317 318 317 319
329 328 327 327 326 325 325 324 323 324 321 319 316 314 312 310 307 305 304 303 301 299 298 296 295 294 294 293 293 293 292 293 292 292 292 293 293 293 293 294 297 303 309 314 316 316 317 319 320 320 320 320 321 322 321 319 318 317 317 316 315 315 315 315 314 314 314 314 314 313 313 313 313 314 314 314 315 314 314 315 316 316 316 316 317
328 327 323 325 324 322 323 321 321 320 320 318 316 315 312 309 306 305 303 301 299 297 297 295 293 293 292 292 292 291 292 292 292 292 292 292 292 292 293 293 293 295 299 306 311 314 314 315 317 317 317 318 318 319 319 318 319 318 316 317 316 315 314 314 313 312 314 314 314 313 312 312 312 313 314 314 314 314 314 314 314 314 314 315 316
327 324 324 323 322 321 320 319 319 319 319 317 315 313 311 307 304 302 302 300 297 296 294 292 292 292 292 292 292 291 291 291 290 290 291 291 291 292 292 292 292 292 294 297 303 308 311 312 313 313 315 316 317 316 318 318 317 316 314 315 315 314 314 314 314 314 313 313 313 313 312 312 310 312 312 312 312 312 312 311 313 314 314 314 314
327 324 321 320 320 319 318 317 317 317 316 315 314 313 310 306 303 301 301 299 296 295 293 292 292 292 292 292 292 292 292 291 291 290 290 290 290 291 291 291 292 292 292 292 296 302 306 309 309 309 311 312 314 315 316 315 315 315 314 314 314 313 313 312 313 313 313 312 311 310 310 310 310 310 311 311 311 311 310 310 311 312 313 313 313
325 324 321 319 317 315 314 315 315 315 314 314 313 310 308 306 303 301 298 296 294 293 293 292 292 292 293 292 292 292 291 291 291 290 290 290 289 290 290 290 291 291 291 291 292 295 300 302 305 306 307 308 310 312 313 314 314 314 313 313 313 313 311 310 311 311 311 311 310 309 310 309 310 310 310 310 309 309 310 311 311 312 312 312 313
319 320 323 319 317 314 313 313 313 313 314 313 311 310 306 304 302 301 298 295 294 293 293 292 292 291 291 290 290 290 290 290 290 290 290 289 289 289 289 289 290 289 290 290 291 291 293 296 300 302 303 304 306 308 309 311 312 312 312 312 312 312 311 309 309 309 310 309 309 309 309 309 309 309 310 309 309 309 309 310 310 311 311 311 312
315 315 315 316 314 313 313 311 311 311 311 311 309 308 306 303 300 299 297 295 293 292 292 291 291 290 290 289 289 289 289 289 289 289 289 289 288 288 288 288 289 289 289 289 290 290 290 291 292 294 298 300 303 306 308 308 309 311 311 310 311 310 310 309 307 307 308 307 307 307 308 308 308 308 308 308 308 308 308 308 308 309 310 310 311
313 312 311 311 311 310 310 310 309 307 307 306 306 305 303 301 298 297 296 295 294 293 292 291 290 290 289 288 289 288 289 288 288 288 288 289 288 287 288 287 288 288 288 289 289 289 289 290 289 289 290 296 300 303 305 306 305 308 310 310 310 309 309 309 307 307 307 307 306 307 307 307 307 307 307 307 307 306 307 307 307 307 307 308 310
311 311 310 308 308 307 306 306 306 305 304 304 303 303 301 298 296 295 294 294 293 292 292 290 290 289 289 289 289 289 288 288 287 287 287 287 287 288 287 287 287 288 288 288 288 288 288 288 288 288 288 290 294 298 300 303 303 304 307 309 310 309 308 308 307 306 306 306 306 306 306 306 305 305 305 305 305 305 305 305 306 307 307 307 307
309 308 307 305 305 304 305 304 306 306 305 304 304 302 300 298 296 295 293 292 291 292 292 292 289 288 289 289 289 289 289 288 287 287 286 286 287 287 287 287 287 287 287 288 288 287 287 287 287 287 287 288 288 291 295 298 300 303 304 305 307 308 307 307 307 305 305 306 306 305 305 305 305 305 305 305 305 305 304 305 305 306 306 307 307
307 306 304 303 302 302 302 301 303 304 304 303 303 300 299 297 296 293 294 292 290 292 292 293 290 288 287 287 287 290 291 289 287 286 286 286 286 286 286 286 286 286 287 287 287 287 286 286 286 286 286 286 287 288 291 294 296 300 301 301 303 305 306 306 306 304 304 305 304 304 304 304 304 304 304 304 304 305 305 305 306 306 306 306 306
305 304 303 302 302 301 300 300 301 299 300 300 300 299 298 296 296 293 291 292 291 291 291 293 290 290 290 287 284 285 287 287 288 287 286 285 286 286 286 285 285 286 286 287 286 286 286 286 285 285 285 285 286 287 289 291 293 295 298 299 301 303 305 305 305 304 304 303 303 303 303 303 304 304 304 304 304 304 304 304 305 306 305 305 306
301 302 301 301 301 299 298 297 297 300 301 300 299 298 297 296 296 294 293 289 291 290 290 290 290 289 288 290 286 287 284 284 285 286 286 285 285 285 285 285 285 285 286 286 285 285 285 285 284 284 284 284 285 286 288 289 291 293 294 295 297 301 302 304 304 304 303 303 304 304 303 303 303 304 304 304 305 305 305 305 304 305 305 305 305
298 299 299 299 299 298 297 296 297 299 301 300 299 298 298 297 296 294 294 292 290 289 289 289 292 290 292 286 286 286 288 286 285 285 287 286 284 285 285 284 285 285 285 285 285 285 285 284 284 284 284 283 284 285 287 289 291 293 293 294 295 297 300 301 303 303 303 303 304 304 303 303 303 303 303 304 304 304 304 304 304 304 304 304 304
296 297 298 296 296 295 295 295 296 297 300 300 299 298 297 296 296 296 295 294 293 289 288 287 287 288 288 291 294 294 287 285 285 283 285 286 286 284 283 284 284 284 284 284 285 285 285 283 283 283 283 283 283 285 287 288 289 291 292 293 295 295 296 298 300 302 302 302 302 303 303 303 302 302 303 302 303 304 303 303 303 303 303 303 303
295 294 295 294 294 293 293 295 295 296 297 297 296 296 296 296 296 297 296 295 294 292 289 287 286 286 286 287 287 286 290 285 283 284 281 284 286 284 283 283 283 284 284 284 284 284 284 284 283 283 283 283 283 284 286 287 287 289 291 293 295 294 294 295 297 299 300 301 301 301 302 302 302 301 302 301 303 303 302 303 303 303 303 303 303
293 292 292 292 291 291 291 293 294 294 294 296 296 296 295 294 295 296 295 295 296 292 289 287 289 284 285 285 284 284 286 287 288 287 286 282 282 284 284 282 283 283 283 284 284 284 283 283 282 282 282 282 282 283 285 287 287 287 288 291 293 293 294 294 295 295 296 298 299 299 300 301 301 301 301 301 301 301 302 302 302 303 302 302 302
291 291 290 290 289 289 290 291 292 291 293 294 294 293 294 292 291 292 293 294 295 292 288 287 287 285 283 283 285 284 284 284 283 286 285 284 282 283 283 283 283 283 283 283 283 283 284 283 283 282 283 282 282 282 284 286 286 286 286 289 291 293 293 294 295 295 294 294 295 296 299 299 300 300 301 300 300 300 302 302 302 303 302 302 301
288 289 288 288 288 288 289 291 291 291 291 292 291 291 292 292 292 293 293 292 290 290 290 288 288 286 287 286 286 283 285 284 284 283 283 287 283 283 284 284 282 283 283 284 283 283 283 283 282 282 282 282 281 282 283 285 287 286 284 287 288 290 291 293 294 294 294 294 293 293 295 296 297 299 299 299 300 301 302 302 302 302 302 302 301
287 287 287 287 287 287 289 289 289 290 289 290 290 291 290 291 291 291 290 289 288 289 288 287 287 286 286 286 285 285 285 284 283 285 285 282 282 281 281 282 282 283 283 283 284 282 282 282 282 281 281 281 281 282 282 284 286 285 283 284 287 288 290 291 293 293 293 293 292 293 293 293 294 295 297 298 300 301 301 302 301 301 301 301 301
286 286 286 285 286 286 287 287 288 288 288 289 289 289 289 289 288 289 288 288 288 287 287 286 286 286 286 285 285 285 284 285 285 285 285 284 284 282 282 281 281 282 283 283 282 282 282 282 281 281 281 281 281 281 281 283 285 284 282 282 284 287 288 290 293 292 292 292 291 292 292 292 292 293 294 296 298 299 300 300 301 301 301 301 300
285 285 285 285 285 285 286 286 286 287 287 287 287 287 287 287 287 287 287 286 286 287 285 286 285 285 284 283 284 285 284 283 284 284 284 284 284 281 281 281 281 281 282 281 282 281 282 281 281 281 280 281 281 281 281 282 284 283 281 280 282 284 286 288 290 291 292 291 291 291 291 290 291 292 293 294 295 296 298 300 301 301 301 301 300
286 286 285 285 285 286 286 286 286 286 286 287 286 286 287 286 286 286 286 286 286 286 286 285 285 285 284 284 284 284 283 283 284 284 283 283 281 281 280 280 279 280 281 281 281 280 281 281 281 280 280 280 280 281 280 281 283 282 280 279 280 282 284 286 289 289 290 290 290 290 290 289 290 291 293 294 294 295 295 297 298 300 300 300 300
288 287 285 285 285 285 285 285 284 285 285 285 285 285 286 285 285 285 284 284 285 284 284 284 283 283 284 284 283 283 283 283 283 284 284 284 284 281 280 278 278 280 279 280 280 280 281 281 281 280 280 280 280 281 280 281 282 281 280 279 279 279 281 285 287 289 289 289 289 289 289 289 289 291 292 292 294 293 294 295 296 296 297 298 298
288 286 284 285 284 284 284 284 284 284 284 284 284 284 284 284 283 283 283 283 284 284 283 284 283 283 283 283 283 283 283 283 283 283 283 283 283 283 282 281 280 279 278 279 279 280 281 281 281 281 280 280 280 280 280 279 282 280 279 279 279 279 280 284 287 288 288 288 288 288 288 288 289 290 290 291 291 291 292 293 293 294 293 294 295
286 286 284 284 284 284 283 283 283 284 284 284 284 284 284 284 283 283 282 282 283 283 282 283 282 282 282 282 283 282 282 282 282 282 282 282 282 283 282 282 282 279 278 277 279 279 281 280 280 281 279 280 280 280 279 279 281 280 280 279 279 278 280 283 285 286 286 287 287 287 287 288 288 289 289 290 290 290 291 291 290 291 291 291 292
286 285 284 283 283 283 283 283 283 283 283 283 283 283 283 283 283 282 282 282 282 282 282 281 281 281 281 281 282 282 281 282 282 282 282 282 282 282 282 282 282 280 279 277 278 280 280 280 280 280 280 279 280 280 280 279 280 280 279 279 278 278 280 282 282 283 284 286 285 285 286 287 288 288 288 288 289 289 290 290 290 290 291 291 292
284 284 283 282 282 282 282 282 282 282 282 282 282 282 282 281 281 281 281 282 282 281 281 281 281 281 281 280 281 281 281 281 280 281 280 281 281 282 282 282 282 281 280 279 276 279 280 280 280 280 280 280 279 279 279 279 279 279 279 278 278 279 279 279 280 282 283 283 284 285 286 287 287 288 288 288 288 288 289 289 289 289 289 289 291
284 283 283 282 282 281 281 281 281 281 281 281 281 281 281 281 281 281 281 281 281 280 280 281 280 281 281 280 280 280 279 280 280 280 280 280 280 281 281 281 281 280 280 279 277 278 281 280 280 280 279 279 279 279 279 279 279 278 278 278 278 278 278 278 278 280 281 282 283 284 285 286 286 287 287 287 287 287 287 287 288 288 288 289 290
283 282 282 282 281 281 281 281 281 280 280 280 280 280 280 280 280 280 280 280 280 280 280 279 280 280 280 279 279 278 279 279 279 279 280 280 279 280 280 280 280 280 279 278 277 277 279 280 280 280 280 278 278 279 278 278 278 278 278 278 278 278 278 278 278 279 280 281 282 283 285 285 286 286 286 286 285 285 286 287 286 286 287 288 288
282 282 282 281 281 281 281 280 280 280 280 280 280 280 280 280 279 279 279 280 279 279 279 279 279 279 279 279 278 277 278 278 278 279 279 279 279 279 279 279 279 279 280 278 278 277 277 278 278 279 278 278 277 279 277 277 277 278 277 277 278 278 277 278 278 278 280 281 282 283 284 285 285 285 285 284 284 284 285 286 285 286 287 287 286
282 282 281 281 280 280 280 280 280 280 280 279 279 280 280 280 279 279 279 279 279 279 279 278 278 278 278 278 277 277 277 278 278 278 278 278 278 278 278 278 278 278 279 279 278 276 276 277 277 276 277 277 277 277 277 277 277 277 276 277 277 277 277 278 278 278 279 281 282 283 284 283 284 284 284 283 283 284 284 285 285 285 285 285 285
281 281 281 280 280 280 280 279 279 279 279 279 279 280 279 280 279 279 279 279 280 280 279 279 278 278 278 277 277 277 277 278 277 277 277 277 277 277 277 277 277 277 278 278 278 277 276 275 275 276 276 276 276 277 277 277 277 276 276 277 277 276 277 277 278 278 279 281 282 282 282 283 283 283 282 282 282 283 283 284 284 284 284 283 283
280 280 280 280 279 279 279 279 279 279 279 279 279 279 279 280 280 279 279 279 279 279 279 279 279 278 278 278 277 277 277 277 277 277 277 276 276 276 276 277 276 277 276 277 277 277 276 275 275 276 276 276 276 276 277 276 276 276 276 276 276 276 277 278 278 278 279 281 281 281 281 281 281 281 281 281 281 282 282 283 283 283 283 282 281
280 280 280 279 280 279 279 279 279 279 279 279 279 279 279 279 279 279 279 279 279 279 279 279 279 278 278 278 277 277 277 278 277 277 276 276 276 275 275 276 276 276 275 275 276 275 275 275 275 274 275 275 275 276 276 276 275 275 276 276 276 276 276 276 277 278 278 278 278 279 279 279 279 280 280 279 280 281 281 282 282 282 281 280 280
280 280 280 279 280 279 279 279 279 279 279 279 279 279 279 279 279 279 279 278 278 278 278 278 279 278 278 278 277 277 277 278 277 277 276 276 275 275 275 275 275 275 275 275 275 274 274 274 274 274 274 275 275 274 276 277 276 275 274 274 274 276 276 276 276 278 279 279 279 279 278 278 278 278 278 278 279 279 280 281 280 280 279 279 280
280 280 279 279 279 279 279 279 279 279 279 279 279 279 279 279 279 279 279 278 277 277 277 277 278 277 277 277 277 277 277 278 278 277 277 276 276 275 276 275 275 274 274 274 274 274 274 273 273 273 274 274 274 275 276 275 274 274 275 274 273 274 275 276 277 276 278 278 277 276 276 276 276 276 276 276 277 277 278 278 278 278 277 279 281
280 280 280 279 279 279 279 279 279 279 279 279 279 279 278 278 279 279 278 278 278 277 277 276 277 277 277 277 277 277 277 278 279 278 277 277 276 275 275 275 274 274 274 274 274 273 273 273 273 274 273 273 274 274 274 274 273 274 275 274 273 274 275 275 277 278 278 276 276 275 275 275 274 274 274 274 275 275 276 277 277 276 277 280 282
280 280 279 279 279 279 279 279 279 279 279 279 280 282 281 279 279 278 278 278 278 277 276 276 275 276 276 277 277 278 278 279 279 280 280 279 279 277 277 275 274 273 273 272 272 272 273 272 272 273 272 273 274 274 274 274 275 275 274 274 273 274 275 275 276 278 276 275 274 274 274 275 273 273 273 273 274 274 274 275 275 276 278 281 281
279 279 279 279 279 279 279 279 279 279 279 279 282 284 284 283 279 278 278 278 278 277 277 276 276 275 276 276 276 277 279 279 279 280 281 281 281 280 280 278 277 274 272 271 271 272 271 271 272 273 273 273 274 275 274 274 274 274 274 274 273 274 274 273 272 275 276 275 274 272 272 274 273 272 272 272 273 273 274 274 276 278 279 280 281
279 279 279 279 279 279 279 279 279 279 279 282 285 285 285 284 282 279 279 278 278 277 277 277 277 276 276 276 276 276 277 278 278 279 280 282 282 282 282 281 280 279 278 275 273 272 271 271 271 272 273 273 274 275 274 274 274 274 274 274 274 273 273 273 273 272 276 275 273 272 272 274 273 272 271 272 272 273 273 274 277 279 280 281 281
279 279 279 279 279 279 279 279 279 279 279 284 285 286 285 285 284 280 278 278 278 278 277 277 276 276 276 276 276 276 276 278 279 278 278 278 281 282 283 283 282 282 281 281 280 276 274 272 272 273 274 274 274 275 275 274 276 274 274 273 274 274 275 274 274 274 275 274 273 271 270 272 272 271 271 272 272 272 272 273 276 278 280 280 280
279 279 279 279 279 278 279 278 278 278 278 284 286 286 286 286 285 282 278 278 279 278 277 277 276 276 276 276 276 276 276 276 277 277 277 277 277 278 279 281 281 282 283 283 282 281 279 276 275 274 276 277 275 276 277 277 275 274 274 273 274 274 274 274 275 274 273 273 271 270 268 270 271 270 270 271 272 271 272 273 275 278 279 279 279
279 279 279 278 278 279 279 279 278 278 278 284 286 286 286 287 287 285 280 279 279 278 278 277 276 277 277 276 276 277 277 276 276 277 276 277 276 276 275 275 276 278 280 281 282 282 282 281 279 278 278 279 278 278 277 277 276 276 276 274 274 275 275 274 271 271 271 272 271 269 266 270 271 269 270 270 271 271 272 272 274 276 278 278 278
279 279 279 279 279 279 279 279 278 278 278 284 286 286 287 287 287 285 282 280 279 278 277 277 277 277 277 276 276 276 277 277 278 280 279 277 276 274 273 273 273 274 274 278 280 282 281 281 281 281 280 279 280 278 277 276 276 276 276 273 271 270 270 270 270 271 268 271 271 269 266 267 270 268 268 270 270 270 271 271 273 275 276 276 277
279 279 279 279 279 279 279 278 278 278 278 283 285 286 286 287 287 284 284 282 280 278 278 278 277 277 276 276 276 276 276 276 278 280 281 280 275 273 272 271 271 271 271 274 277 280 281 282 282 283 283 282 282 282 281 281 279 277 274 271 270 270 268 268 270 270 269 269 269 270 268 266 268 268 267 269 269 269 269 270 271 273 274 275 276
279 279 279 278 278 279 278 278 278 278 278 281 285 286 286 286 286 284 283 282 281 280 279 279 278 277 277 278 277 276 276 276 278 280 281 281 277 274 272 271 271 271 272 273 273 274 277 279 280 281 282 282 282 283 283 283 282 281 274 270 272 270 269 269 268 270 269 268 268 270 266 265 267 268 266 267 268 269 269 270 270 271 272 272 274
279 279 278 278 278 278 278 278 280 279 279 280 284 285 285 286 286 284 283 282 281 280 279 279 279 277 276 277 278 277 276 276 278 279 280 280 278 276 274 273 272 272 274 274 273 272 272 272 273 274 276 278 279 279 279 281 282 281 278 275 273 270 270 270 268 267 266 267 268 269 265 265 266 267 267 264 264 267 268 269 269 269 270 270 270
Wind_Speed
6 6 7 8 8 7 7 6 6 6 6 6 8 8 8 8 7 8 7 8 8 8 8 8 8 8 8 9 8 8 8 8 7 7 7 7 8 12 20 19 20 20 20 19 19 21 22 22 21 21 22 21 26 25 25 24 23 23 23 23 23 23 23 23 23 24 24 24 24 24 24 24 25 25 25 25 26 26 26 28 28 28 28 28 28
4 4 6 7 8 8 8 7 7 6 6 7 5 7 9 8 8 8 8 8 8 8 8 8 9 8 8 9 8 8 7 7 7 7 7 7 7 9 18 20 20 20 21 21 21 20 21 22 22 21 21 25 25 24 23 22 22 22 22 22 22 23 23 23 23 23 23 24 24 24 25 25 25 25 25 25 25 25 25 26 26 27 28 28 28
6 5 5 7 7 7 8 8 7 6 7 7 6 7 8 8 8 7 7 8 8 7 8 8 8 8 7 9 7 7 7 6 7 6 7 6 6 7 10 18 20 20 21 22 22 21 21 21 21 22 22 22 22 21 21 21 20 21 21 21 22 22 23 23 23 23 23 23 23 24 24 25 25 25 25 25 25 25 26 26 26 26 27 27 28
7 7 6 5 7 6 6 6 8 6 6 7 8 7 8 9 9 8 8 9 9 8 7 8 9 8 7 9 7 7 6 6 7 7 7 6 6 7 7 8 16 19 20 21 22 21 21 21 21 20 20 20 20 21 21 21 20 20 20 21 21 22 22 22 22 23 22 23 23 23 24 24 24 25 25 25 26 26 26 27 27 28 28 28 28
5 7 7 6 7 6 6 7 6 7 8 8 9 9 8 9 8 7 7 8 10 9 7 8 9 8 7 7 6 7 6 6 6 6 7 6 6 6 6 7 8 13 18 20 21 22 21 22 22 21 20 20 20 20 21 20 19 20 20 20 20 20 21 21 22 22 21 22 22 22 23 23 24 24 23 24 24 24 25 25 26 27 28 28 29
7 6 5 8 7 7 7 7 7 8 7 9 7 8 7 9 8 7 7 8 10 9 8 9 8 7 7 6 6 6 5 7 6 6 6 6 6 6 6 6 6 7 8 16 20 20 21 21 21 21 21 21 20 20 18 18 18 18 19 19 20 20 20 21 21 21 21 22 22 22 22 22 23 23 23 23 23 24 24 25 25 25 25 26 27
9 7 5 4 8 8 8 7 8 10 8 7 9 7 8 8 9 8 7 8 9 8 9 9 8 8 6 5 6 5 6 7 6 6 6 5 6 6 6 6 6 7 7 7 11 19 20 21 21 21 21 21 21 20 19 18 17 18 19 19 19 20 20 20 21 21 21 22 22 22 22 22 22 22 22 23 23 23 24 24 24 25 25 25 25
7 8 7 7 6 6 7 8 9 9 9 8 9 8 9 8 7 9 11 9 10 10 8 9 8 8 6 5 5 5 6 5 6 6 5 5 6 6 6 7 7 6 6 6 7 10 20 19 21 21 21 20 20 20 19 19 18 18 18 18 18 19 19 19 20 20 21 21 21 22 22 22 22 23 23 23 23 24 24 24 24 24 25 25 25
5 5 8 9 7 7 6 8 8 9 8 10 8 8 10 9 8 4 8 11 10 12 9 7 7 7 6 6 5 5 6 5 5 5 4 6 6 6 7 7 7 7 6 6 6 6 13 18 18 20 20 20 20 20 20 19 19 18 17 17 17 18 19 19 19 20 21 20 21 21 22 22 22 22 22 23 23 24 24 24 24 24 25 25 25
6 4 5 7 8 8 8 9 8 9 7 9 9 7 8 9 9 5 5 10 10 11 10 7 6 7 6 6 5 5 5 5 5 4 5 6 6 7 6 5 6 6 5 6 6 6 6 10 14 15 19 19 20 20 20 20 19 18 18 17 17 17 18 19 19 19 20 20 20 21 21 21 21 21 22 22 23 23 24 24 24 25 25 25 25
5 7 5 7 9 8 9 10 9 7 9 10 9 9 8 8 11 8 5 5 9 9 10 8 8 7 6 6 5 6 5 5 4 5 5 6 6 5 5 6 5 6 6 6 6 6 6 6 6 6 9 19 18 19 19 19 19 18 18 17 17 17 17 19 19 19 20 20 20 20 20 20 21 21 21 22 23 23 24 24 24 24 24 25 25
5 7 7 7 7 7 8 8 7 8 9 11 10 10 12 12 10 11 11 8 6 8 9 10 9 8 7 6 6 5 7 5 6 5 5 5 4 4 5 4 5 6 6 5 5 6 6 6 6 6 6 10 16 16 17 19 19 19 18 18 17 17 17 18 18 19 19 19 19 19 19 19 20 20 21 21 22 22 23 23 23 24 24 25 25
6 6 8 7 7 7 9 6 7 8 10 11 11 11 11 10 9 8 14 12 8 6 5 9 10 7 6 7 6 5 5 5 6 5 5 4 3 4 4 5 5 6 5 5 6 6 6 6 5 5 6 5 7 13 15 16 18 18 18 17 17 17 17 18 18 19 19 19 19 18 18 19 20 20 21 22 22 23 23 23 23 24 24 25 25
5 6 8 9 8 7 7 7 10 8 9 11 11 11 11 9 10 8 2 11 8 7 6 6 4 7 8 5 5 4 3 4 5 6 4 4 3 4 4 5 5 4 3 5 6 6 6 5 5 5 5 5 5 6 7 8 12 17 17 17 17 17 17 17 18 18 18 18 18 18 18 18 19 20 20 21 21 22 22 23 24 24 25 25 25
5 7 8 8 8 10 9 7 8 9 9 10 10 9 8 11 10 11 7 2 6 1 2 3 5 4 5 7 3 3 1 2 2 4 4 4 3 5 4 5 5 4 3 4 5 5 5 5 6 6 6 6 5 5 6 7 8 11 16 18 18 18 18 18 18 18 18 18 18 18 18 19 19 20 20 21 22 22 23 23 23 24 25 25 26
7 7 7 7 10 9 8 8 8 8 12 12 9 9 9 8 9 11 11 10 5 3 2 1 5 11 5 1 3 2 3 4 3 2 2 4 4 4 3 4 4 3 3 5 4 4 5 5 6 5 5 5 5 5 5 4 5 8 14 18 19 19 18 18 18 18 18 18 18 18 18 19 20 20 20 21 21 22 22 23 23 24 24 25 25
6 6 8 8 9 8 9 8 9 7 9 9 9 10 10 8 11 11 14 12 8 3 1 0 5 4 5 6 3 2 3 3 4 2 0 3 4 3 3 3 4 3 4 4 4 4 4 5 5 5 5 5 5 4 3 4 5 7 10 14 17 18 18 17 17 18 18 18 18 18 18 19 19 19 20 20 21 21 22 22 23 23 24 25 25
4 4 7 7 9 8 8 9 8 8 8 9 10 9 9 10 10 11 11 11 11 8 4 2 2 1 1 1 2 2 6 3 3 4 1 1 1 3 2 2 2 4 3 4 4 3 3 4 4 4 4 4 3 3 4 6 7 7 8 10 16 16 16 17 17 17 17 17 18 18 18 18 19 19 19 20 20 21 22 22 23 23 24 24 25
4 3 4 6 7 7 7 8 8 8 8 10 10 10 9 9 8 9 8 8 8 9 9 5 3 2 2 1 2 2 7 8 4 4 4 3 2 3 2 1 2 3 3 3 3 3 3 3 3 4 4 4 3 4 4 6 8 8 13 15 15 15 15 15 15 15 16 17 17 18 18 19 19 19 19 20 20 21 22 22 22 24 24 24 25
4 4 4 5 6 6 6 7 8 7 8 8 10 8 7 6 6 6 7 8 8 9 8 8 10 4 1 2 3 4 4 4 5 5 4 7 4 1 2 2 3 2 3 3 3 3 4 3 3 3 3 4 3 3 4 5 5 7 8 15 14 14 14 14 13 13 14 15 17 17 18 18 19 19 20 20 21 21 22 22 23 23 24 24 25
3 3 4 5 6 7 8 7 7 8 7 6 7 10 12 12 9 8 9 7 6 8 9 9 7 7 6 2 3 4 3 3 2 3 3 4 3 4 5 4 3 2 2 2 2 2 3 3 3 2 3 3 3 3 4 4 4 5 9 13 14 14 14 13 13 13 13 14 15 17 17 18 19 19 20 21 21 22 22 22 23 24 25 26 26
3 3 4 4 5 6 6 9 9 8 7 8 9 9 10 10 10 9 9 9 5 9 10 9 7 8 6 7 5 3 4 2 3 4 4 2 4 5 3 4 4 3 0 2 2 3 3 3 3 2 2 3 3 3 4 4 4 4 8 13 13 13 13 13 13 13 14 14 15 16 17 18 19 20 21 22 22 22 22 22 22 24 25 25 26
3 4 5 5 5 5 6 7 7 8 8 9 9 9 9 8 8 9 9 10 9 7 6 8 7 7 6 7 7 8 6 5 7 3 4 3 3 2 1 1 1 1 2 2 1 2 3 2 2 1 2 3 3 3 3 3 4 6 10 12 12 13 13 13 13 14 14 15 15 16 17 18 19 20 21 22 22 22 22 23 23 25 25 25 26
3 3 5 5 5 4 4 6 6 7 8 6 7 7 8 7 7 8 8 7 8 8 9 9 8 5 6 4 4 4 3 3 6 5 6 4 4 4 3 2 1 3 1 2 2 2 3 2 2 2 1 2 2 2 3 2 4 9 7 11 12 13 13 13 14 14 14 14 15 16 17 18 19 20 21 21 22 22 23 24 25 25 26 26 26
4 5 6 6 5 5 5 6 6 6 8 8 8 9 8 7 9 9 9 10 9 10 9 10 10 9 6 2 3 3 3 2 4 6 3 4 5 4 1 0 1 1 1 1 1 1 2 2 2 2 2 2 2 2 2 3 3 7 8 6 11 12 13 13 14 14 14 14 15 16 17 18 19 20 20 21 21 23 24 24 25 26 26 27 27
8 7 7 6 4 4 6 6 6 8 8 9 9 9 9 8 9 10 10 7 7 8 9 8 6 6 4 5 3 4 3 2 4 4 5 6 5 5 4 2 0 1 1 1 0 2 3 3 3 2 2 2 2 2 2 2 2 7 8 5 6 11 12 13 13 14 14 14 15 16 17 18 18 19 20 21 22 22 23 24 25 26 26 27 27
8 8 8 7 6 6 5 6 7 7 7 8 7 7 7 7 6 8 6 5 7 7 6 9 8 7 5 4 5 4 3 2 3 3 4 6 6 5 6 5 2 2 1 1 1 5 2 3 4 3 3 2 1 1 2 2 3 6 6 4 4 9 11 12 13 13 13 14 15 16 16 17 17 18 19 20 21 22 23 24 24 25 26 27 27
7 9 9 9 8 7 6 6 6 7 7 8 8 7 8 8 6 6 6 3 7 7 6 7 7 6 6 5 5 4 2 2 2 3 2 2 4 4 4 3 3 1 1 2 2 3 4 4 3 4 3 2 1 1 2 2 2 4 4 3 3 5 9 12 13 13 13 13 14 15 16 16 17 18 19 20 20 21 22 23 24 25 25 26 27
8 8 11 8 7 8 7 6 6 6 7 7 7 7 7 7 7 7 6 4 5 7 5 6 5 5 5 5 5 5 3 3 2 2 2 2 2 2 2 4 4 3 1 2 2 3 2 5 4 3 5 2 1 1 1 1 2 3 2 3 3 4 8 12 12 13 13 13 14 15 15 15 16 17 18 19 20 20 21 22 23 24 25 26 26
9 8 9 10 9 8 7 7 6 6 6 6 7 7 7 6 6 5 5 6 7 5 5 6 6 4 5 5 5 5 3 4 3 2 2 2 2 2 2 2 2 4 3 3 3 2 2 3 4 3 4 3 1 0 1 0 2 2 3 3 4 4 10 11 12 12 12 13 13 14 14 15 16 16 17 18 19 20 21 22 23 24 25 25 26
7 7 8 9 8 7 7 7 6 6 6 6 7 6 6 7 6 6 5 5 6 6 4 5 4 5 6 6 4 5 4 4 3 2 2 2 2 2 2 2 2 2 3 2 3 2 3 4 2 1 2 2 1 1 1 1 1 3 3 3 4 7 11 8 11 12 12 12 13 13 13 14 15 16 17 17 18 20 21 22 23 24 24 25 25
8 9 9 9 9 9 7 7 7 6 6 6 6 7 6 6 6 6 5 6 7 7 5 4 4 4 6 6 5 5 4 4 4 3 3 2 2 2 2 2 2 2 2 4 6 7 2 2 1 2 2 2 3 3 2 0 0 3 3 4 5 8 6 5 9 11 12 12 12 12 13 14 15 15 16 17 18 19 21 22 22 23 24 24 24
8 9 8 9 9 8 8 7 7 7 7 7 6 7 6 7 5 6 6 6 8 5 6 6 4 5 5 6 5 4 5 5 4 3 3 3 3 2 2 2 3 3 5 5 6 7 3 2 3 3 1 1 4 1 2 3 3 3 4 4 5 5 6 5 5 9 11 12 12 11 12 13 14 15 15 16 17 19 21 21 22 22 22 23 23
9 9 9 8 8 9 9 8 7 7 7 7 7 6 7 8 7 5 6 7 7 7 6 6 5 3 5 6 5 5 4 5 4 4 4 4 4 3 3 4 4 4 5 5 6 4 6 1 3 1 2 1 4 1 2 5 6 5 5 5 5 5 5 5 5 5 11 12 12 11 12 13 14 14 15 16 18 19 20 20 20 21 22 22 23
7 8 8 8 9 8 8 8 8 7 7 7 6 7 7 8 8 7 6 7 8 8 7 6 6 5 5 5 5 5 4 5 4 4 4 4 4 4 4 3 4 5 5 6 4 5 6 5 2 4 3 2 4 4 3 4 5 5 6 6 5 5 5 5 5 5 9 12 12 12 12 13 13 13 14 16 18 19 19 20 20 20 21 21 21
8 7 8 8 8 9 8 8 8 8 8 7 7 6 8 8 8 8 7 6 6 6 7 7 6 6 6 6 5 5 5 5 4 4 3 3 4 4 4 4 4 5 5 5 6 5 3 5 3 3 2 3 4 4 4 5 6 6 6 6 6 6 6 5 6 6 8 12 12 12 11 12 13 13 15 16 18 19 19 19 19 19 20 20 21
8 8 8 6 8 8 8 9 9 8 8 8 8 8 7 6 7 7 7 6 6 6 6 6 6 6 6 6 6 6 6 5 4 4 5 6 4 4 4 4 5 4 3 4 5 5 5 7 5 3 3 5 5 5 5 6 6 6 6 6 6 6 6 6 5 6 11 13 13 12 10 11 12 14 15 15 17 18 19 19 19 19 19 20 20
8 7 8 7 8 8 8 8 8 8 8 8 8 8 8 8 8 7 6 6 5 5 5 5 6 6 6 6 6 7 7 7 6 5 5 7 5 5 5 5 5 4 5 5 4 5 6 8 7 5 4 5 5 6 5 5 7 7 6 5 5 5 5 5 6 5 5 5 5 5 6 8 10 15 14 14 17 18 19 19 18 18 19 19 20
10 9 8 7 7 9 8 9 9 9 8 8 8 9 8 8 8 8 7 6 5 4 4 5 5 5 5 5 6 7 8 7 7 8 7 6 6 7 7 6 5 5 5 5 5 6 7 7 6 7 6 5 6 7 4 4 7 6 7 7 5 3 4 5 6 5 5 6 8 9 7 8 13 12 13 13 16 17 18 18 18 18 18 19 19
9 9 11 10 9 9 10 10 10 9 9 8 8 9 9 9 8 8 7 6 6 5 5 4 4 5 5 5 6 7 8 7 7 7 7 7 6 6 5 5 5 6 6 5 5 6 6 7 7 6 5 6 5 7 5 5 6 5 4 4 8 6 5 5 7 7 6 6 6 4 5 7 10 12 11 10 13 14 16 16 16 16 18 18 20
9 11 11 11 11 10 9 10 9 8 8 9 9 9 9 8 8 8 8 8 6 6 5 5 4 4 5 6 7 7 7 7 9 7 8 7 6 6 5 6 6 6 5 4 5 5 5 5 7 5 6 7 7 5 5 6 6 7 3 3 7 7 7 7 6 6 6 5 6 6 6 4 7 8 6 5 6 9 11 14 13 15 15 18 21
9 9 10 10 10 11 11 10 9 9 8 7 9 12 10 10 9 7 7 8 7 6 6 5 4 5 6 6 6 8 10 10 10 12 12 13 12 9 6 7 7 6 6 5 5 6 5 6 7 6 6 9 7 6 6 6 4 4 5 5 7 7 7 8 7 5 3 3 6 9 6 4 5 8 6 6 5 6 6 8 8 12 18 22 21
8 7 8 9 9 9 10 10 10 8 7 7 14 15 15 13 9 8 9 7 6 6 6 7 8 7 6 6 5 7 9 9 10 13 13 14 15 15 13 12 10 10 9 8 8 6 6 7 6 5 7 9 9 5 7 6 5 6 6 5 7 7 7 7 8 2 4 1 7 9 9 4 3 8 6 5 5 5 6 8 16 21 20 20 21
8 8 9 10 9 8 7 7 8 8 7 9 16 16 15 16 11 8 7 6 6 6 6 6 7 7 6 6 6 5 6 8 7 8 12 15 16 16 16 16 16 17 15 13 10 6 8 7 6 8 8 9 10 5 5 5 6 5 7 6 7 7 8 8 8 8 2 4 7 10 14 2 2 6 7 4 4 5 6 11 20 22 20 20 21
9 10 11 11 10 9 8 9 9 7 7 12 16 16 16 16 15 10 5 6 6 5 6 8 8 8 7 7 6 6 6 11 8 7 7 8 13 16 17 17 18 19 20 21 18 12 5 7 8 11 10 8 9 9 8 6 5 6 6 7 7 7 8 9 9 8 8 4 6 9 13 7 2 6 6 4 4 5 6 9 17 21 20 19 20
9 9 8 9 9 10 10 10 9 8 8 13 17 17 16 16 15 11 5 6 5 7 8 8 8 9 9 7 8 8 7 7 7 7 7 7 7 7 8 9 10 14 20 22 20 22 16 11 12 13 12 8 10 8 5 7 8 7 6 8 7 8 8 10 10 8 4 3 4 7 11 6 1 5 8 5 4 6 6 9 16 20 19 18 19
9 10 10 10 9 9 8 8 8 8 7 13 16 16 15 15 15 11 5 4 4 6 6 7 9 9 8 7 8 8 9 9 9 9 8 8 7 6 7 9 9 9 9 12 14 14 13 13 14 15 13 10 11 11 6 8 10 9 8 8 8 9 8 6 4 4 5 4 4 3 7 9 3 8 9 5 5 6 6 8 13 18 17 16 18
3 3 3 4 6 7 6 7 6 8 6 14 14 16 15 14 14 7 5 6 6 7 8 8 9 9 8 7 9 11 11 9 8 13 12 6 6 9 10 10 9 7 8 10 12 13 12 11 11 11 10 9 10 8 7 7 7 6 6 1 0 1 1 7 10 2 4 2 5 5 5 9 2 7 11 6 7 8 6 6 10 14 13 15 18
6 6 6 5 5 6 7 7 7 7 6 11 15 14 13 13 9 5 6 5 5 8 10 10 10 8 8 8 9 9 10 8 8 12 14 11 7 10 10 11 10 8 10 7 13 20 22 22 23 23 22 20 19 20 19 20 13 8 3 5 9 4 5 8 9 6 4 3 4 6 5 9 5 5 9 8 7 9 8 6 5 7 9 16 20
9 8 7 7 6 6 7 7 7 7 5 7 12 12 12 13 9 7 6 7 8 8 10 10 8 8 10 9 9 8 8 7 8 12 13 11 8 10 9 10 12 12 11 4 6 9 17 20 22 23 23 24 25 26 26 25 23 16 9 11 9 6 8 8 10 5 4 3 6 6 3 7 5 4 8 9 9 5 4 4 4 3 7 12 16
5 5 5 6 5 5 5 6 6 5 4 5 10 10 11 12 10 6 6 6 8 9 8 10 9 7 8 7 12 11 9 9 11 11 13 12 8 9 9 8 12 14 14 3 7 7 6 7 9 11 12 16 15 14 15 21 23 20 12 11 5 9 10 8 5 3 7 2 3 7 4 4 2 4 3 7 7 5 4 2 2 4 6 7 10
Wind_Direction
167 168 157 154 146 141 140 135 132 131 129 122 127 123 112 112 105 100 98 96 92 86 81 75 72 66 72 69 63 59 54 54 51 44 40 36 34 25 29 40 62 58 58 57 58 56 54 52 56 62 63 65 63 59 57 54 54 52 50 46 44 44 43 41 39 39 38 36 34 32 31 29 28 26 24 22 21 19 16 13 11 10 9 8 6
164 156 161 157 149 144 141 141 136 142 135 131 132 123 121 115 109 109 110 99 93 90 87 80 74 69 69 73 64 61 60 58 51 50 49 45 38 35 30 35 45 64 61 60 57 57 52 48 47 50 54 56 60 60 58 54 52 51 49 48 44 43 42 41 39 39 37 36 34 32 31 29 27 26 24 22 20 19 16 14 12 9 7 5 4
169 162 159 161 150 149 146 144 143 150 144 132 131 119 117 114 116 120 115 105 99 99 94 90 80 71 68 71 67 66 63 60 61 57 55 48 50 43 35 34 39 44 58 61 58 56 54 50 47 48 51 54 55 56 56 54 50 48 48 47 46 43 41 40 38 36 36 36 34 32 30 28 26 25 24 21 20 17 16 13 11 10 7 4 3
162 162 156 158 146 150 140 144 146 138 133 129 121 114 111 109 108 110 108 105 101 92 88 93 84 75 70 73 67 68 64 63 64 57 57 54 52 50 46 37 36 41 44 52 56 55 54 53 52 52 52 53 54 53 53 53 49 48 48 47 46 43 41 40 38 36 34 35 34 32 29 28 26 25 24 22 20 18 17 15 12 10 7 4 4
162 164 153 159 136 139 138 137 139 132 130 121 122 117 117 111 109 111 103 106 101 96 89 83 89 82 74 73 75 70 64 67 63 59 54 52 50 50 51 44 42 37 38 43 48 51 53 53 51 50 53 52 50 54 53 53 51 49 48 48 47 43 41 39 37 37 34 34 33 31 29 28 26 26 24 21 21 19 17 15 13 10 7 4 4
161 147 162 153 140 140 140 133 137 122 125 129 127 123 118 117 119 117 112 106 102 106 102 95 91 89 81 77 74 74 73 68 61 59 57 55 53 51 49 47 45 45 36 37 41 45 49 52 52 50 49 52 52 52 52 52 53 51 48 47 47 45 40 38 36 36 36 33 32 31 28 26 25 25 24 22 20 18 16 15 13 11 8 5 2
164 149 133 122 139 145 138 133 137 129 128 128 126 121 118 119 131 118 116 106 105 105 105 103 102 95 87 82 79 78 71 71 63 60 57 59 57 53 49 48 46 44 35 42 33 40 45 49 50 49 48 47 47 48 48 48 47 48 47 44 45 45 41 38 35 35 34 33 32 30 28 26 24 23 22 20 18 17 16 14 12 10 7 4 2
161 155 142 143 127 121 128 132 136 133 130 129 129 133 124 121 127 131 121 113 114 106 101 100 96 93 87 77 75 68 73 69 64 63 55 59 57 54 51 49 45 46 40 43 44 36 42 45 47 47 47 45 46 44 45 46 45 46 44 43 41 44 42 36 35 34 34 33 31 29 27 25 23 22 21 19 17 16 15 14 12 9 6 3 0
136 156 153 146 138 131 132 129 131 132 134 134 132 137 131 128 127 129 122 127 118 112 102 101 97 91 86 80 66 70 68 63 63 70 64 65 62 56 55 50 49 45 47 45 44 43 40 43 44 45 43 44 44 44 42 41 41 43 42 44 41 42 41 37 34 33 33 33 31 28 26 24 22 21 19 18 17 15 13 12 9 7 4 2 360
126 115 122 134 134 134 139 134 128 127 117 125 127 128 125 127 119 117 122 125 126 120 113 104 97 93 82 75 72 67 67 66 67 59 62 64 57 53 54 54 51 49 49 51 49 49 45 41 41 39 37 40 43 42 40 39 38 38 39 39 38 36 39 37 34 33 33 31 30 27 25 22 20 19 18 16 15 13 11 9 7 5 2 359 357
127 127 125 125 133 126 136 145 136 128 124 123 126 127 124 124 125 121 98 99 121 115 118 112 97 90 80 71 72 64 66 64 60 59 57 58 67 67 61 55 59 51 53 51 50 50 47 42 37 36 32 34 39 39 38 37 39 36 36 36 37 35 35 38 34 33 32 30 29 26 23 20 18 16 15 13 12 10 8 7 3 1 359 357 355
144 133 132 132 132 136 133 143 141 131 126 132 139 142 138 132 132 124 115 96 84 112 125 110 91 85 84 74 61 62 61 58 61 59 61 56 64 60 65 59 61 58 55 55 56 51 50 45 43 40 36 33 37 37 36 35 36 39 34 32 34 35 35 34 34 32 30 29 27 25 20 17 14 13 11 10 9 6 4 2 359 357 355 353 352
139 143 137 127 132 135 143 141 152 143 140 145 146 141 140 138 131 130 126 120 117 124 133 120 114 82 77 73 68 55 60 57 63 60 56 57 58 71 65 69 63 62 56 62 60 56 55 50 49 46 40 35 32 32 35 33 31 35 34 29 27 29 30 32 33 30 27 26 24 21 17 14 11 10 8 7 5 3 0 358 355 354 352 351 349
133 156 132 134 137 144 153 150 147 143 139 140 140 141 140 140 135 116 98 130 137 164 167 115 97 139 135 114 80 74 68 56 62 59 61 60 63 70 69 72 69 69 67 67 63 60 56 56 55 51 47 44 36 32 27 29 29 30 32 26 26 24 25 27 29 27 24 21 20 17 14 12 9 7 6 5 3 1 358 356 355 353 351 348 346
158 161 138 145 144 140 156 159 146 134 132 142 144 147 154 151 153 137 131 20 106 21 185 328 127 111 99 106 146 124 167 99 89 71 63 62 65 71 69 75 72 71 74 73 68 62 59 55 57 55 51 46 43 36 40 31 20 20 31 28 23 23 21 22 24 24 21 17 15 13 11 9 7 5 4 2 0 359 357 356 355 353 350 348 346
156 154 144 147 146 155 152 157 155 159 152 149 154 150 155 153 147 143 135 134 147 158 352 266 161 142 150 167 156 147 144 208 158 119 88 68 60 76 73 81 85 82 73 71 70 70 65 59 57 57 51 48 44 39 38 37 3 19 30 27 22 21 20 18 19 19 18 14 11 9 8 6 5 3 1 359 358 357 356 355 354 351 348 347 345
143 163 154 152 151 155 161 163 157 164 154 143 157 163 162 158 153 148 158 146 147 125 104 245 203 338 138 129 105 206 218 136 133 154 94 137 74 68 80 90 95 87 85 84 85 78 77 69 65 61 54 52 45 43 41 27 18 26 27 25 22 20 18 16 16 15 13 10 7 4 5 3 2 360 357 356 356 355 354 352 349 347 346 344 342
133 155 138 154 155 167 166 161 158 156 164 152 140 137 158 160 170 159 157 160 142 129 126 15 12 40 338 358 207 174 153 161 152 176 110 343 80 92 77 86 90 100 92 98 94 90 83 85 72 67 60 52 48 44 41 32 25 29 26 18 22 20 17 15 13 10 8 5 2 1 0 359 358 355 354 354 354 353 350 349 345 344 342 340 338
120 148 136 144 145 164 169 172 158 147 142 141 153 165 165 163 158 164 151 128 142 138 155 153 136 65 37 53 65 16 132 137 195 102 167 186 210 145 123 136 109 100 99 100 114 117 103 95 84 76 62 52 43 46 53 46 38 32 25 18 20 18 15 14 10 6 2 359 359 358 356 355 353 351 350 351 352 350 347 345 343 341 340 339 337
121 119 130 150 156 159 168 159 152 146 150 164 157 152 141 126 146 129 131 152 161 150 154 170 164 147 101 96 73 69 56 51 114 166 143 159 181 170 141 181 141 107 110 120 124 121 121 105 93 80 73 55 41 47 56 51 41 27 19 14 15 16 13 10 7 4 358 356 356 354 352 351 349 348 349 350 350 347 346 343 341 340 338 338 337
98 119 132 150 163 168 164 154 148 153 162 149 147 151 155 150 153 150 161 158 162 154 147 172 159 155 142 90 86 69 61 51 94 74 135 143 149 181 162 168 169 155 130 109 104 123 124 111 95 91 89 69 51 42 48 52 49 32 18 12 11 12 8 5 3 1 358 357 356 352 350 348 348 348 349 349 348 347 344 341 341 339 337 336 337
135 129 136 159 152 170 177 159 156 155 157 147 140 146 148 152 156 154 149 149 148 166 165 156 156 151 162 145 137 129 89 91 57 92 49 36 162 177 184 164 175 149 192 82 102 126 125 116 118 111 92 80 55 44 43 46 49 36 14 11 9 6 4 360 359 360 358 357 355 351 349 348 348 349 349 348 346 344 340 339 337 335 335 334 335
149 155 153 150 163 189 178 157 149 152 145 148 162 157 155 150 145 140 152 156 156 159 131 137 143 147 155 161 157 167 165 169 175 170 139 144 120 134 137 204 156 224 140 4 69 112 129 125 118 109 92 82 65 51 48 44 52 46 22 13 7 3 1 356 357 359 357 356 353 350 349 349 349 348 346 345 342 339 336 336 334 334 335 335 336
162 155 168 153 165 174 155 145 153 153 155 152 147 150 144 138 141 147 146 151 140 147 143 142 150 137 144 154 156 148 135 148 158 142 152 162 149 141 145 123 264 247 338 10 64 104 153 145 131 121 96 90 76 63 55 43 54 39 24 10 5 360 356 354 356 356 354 353 351 350 350 349 348 345 342 340 338 336 334 334 333 334 335 335 336
184 178 176 173 166 164 161 162 159 162 145 145 141 141 146 144 142 140 146 162 167 158 155 156 151 152 152 157 144 137 103 76 120 126 85 114 122 123 99 130 208 177 71 13 156 105 171 167 154 165 146 115 101 72 48 44 39 34 22 4 359 356 354 353 352 352 350 350 349 349 349 348 345 342 339 337 335 334 333 333 333 334 334 334 334
169 192 167 165 178 181 159 155 158 147 151 143 143 146 145 144 145 146 161 152 141 147 127 123 113 112 130 125 117 110 105 111 122 126 139 132 142 146 138 152 206 237 326 256 85 197 178 181 182 170 164 135 106 99 56 39 50 36 23 360 346 352 352 350 347 346 347 348 347 348 348 346 343 339 336 334 333 332 333 332 333 333 333 333 332
176 163 152 165 165 162 165 160 153 150 142 139 135 136 128 123 135 129 119 134 129 126 126 130 129 132 117 120 120 104 114 112 125 124 135 144 138 152 153 151 165 185 235 222 246 237 201 160 172 186 177 147 133 96 59 38 47 33 12 353 335 346 348 343 339 340 344 345 347 348 348 344 340 336 333 332 331 332 332 332 333 333 333 332 331
156 153 155 158 161 158 153 152 144 143 144 143 141 141 136 130 122 131 122 120 132 124 126 114 111 116 116 121 108 106 98 111 102 117 117 125 132 140 147 153 163 205 157 254 225 247 170 194 171 192 180 166 132 91 83 47 23 30 1 346 338 337 338 334 333 335 341 343 347 349 345 341 336 333 331 331 330 331 331 333 333 333 331 330 329
149 161 150 153 154 150 150 150 153 146 141 144 139 130 127 130 132 134 128 145 132 117 113 113 113 122 121 127 115 121 115 106 94 89 88 87 110 122 139 150 154 161 197 243 246 223 181 199 212 169 175 184 157 143 94 26 21 12 346 333 332 330 325 328 327 330 335 341 347 345 340 335 331 329 330 329 330 331 331 332 333 331 329 328 326
159 159 156 151 148 155 151 151 147 148 143 136 128 125 125 122 124 118 128 136 112 98 100 114 126 127 121 117 125 117 116 112 107 104 109 115 127 132 121 111 147 178 191 215 258 196 211 188 223 186 182 191 186 97 146 124 5 349 331 324 327 323 319 319 320 323 331 339 342 338 333 330 326 328 329 328 329 330 330 331 330 328 327 326 325
143 153 156 155 153 148 153 148 148 145 138 135 129 128 129 125 128 125 134 128 118 113 117 122 134 137 135 127 130 118 124 112 111 109 101 115 117 115 104 109 119 161 171 193 229 262 169 229 188 207 192 201 179 278 208 162 13 343 327 322 316 312 311 302 309 318 328 333 333 331 327 322 323 325 326 326 328 328 328 328 326 326 326 325 324
160 160 164 159 154 150 152 149 146 143 140 132 133 129 129 128 133 130 135 134 122 125 126 127 138 145 136 132 138 131 131 121 122 129 126 105 115 122 125 134 141 165 166 202 226 241 170 223 265 205 219 286 298 291 281 158 263 331 325 311 305 302 296 294 301 314 320 323 324 322 319 315 319 322 323 325 327 325 325 324 324 325 324 324 324
152 162 165 162 151 147 145 150 152 148 145 136 131 130 126 125 123 125 131 133 123 125 128 135 146 147 140 133 135 126 128 129 137 142 137 132 122 115 130 163 180 178 185 204 223 255 257 185 250 267 107 321 303 126 307 312 322 326 315 296 293 291 289 290 297 300 306 311 313 312 310 312 315 318 321 325 324 323 323 322 323 324 324 324 325
165 162 164 155 148 147 149 148 150 146 141 135 135 138 135 130 126 137 138 137 130 132 141 145 150 149 144 138 135 132 142 130 148 154 150 144 143 150 177 190 200 192 205 199 231 238 264 212 265 223 240 153 270 281 286 311 313 312 298 292 286 279 284 290 294 294 299 302 303 301 306 310 310 313 321 324 321 321 320 320 320 322 323 325 325
163 162 156 154 148 144 145 147 147 145 145 139 141 142 144 142 141 151 155 149 145 148 156 162 158 149 147 142 137 138 139 147 164 157 145 150 155 173 188 199 211 211 207 219 214 236 252 273 252 272 266 239 243 268 287 282 286 281 278 275 276 279 274 280 280 284 286 293 295 296 305 302 304 311 319 320 318 319 318 317 318 320 322 324 325
155 149 150 155 144 148 145 149 147 143 143 143 143 147 146 149 150 151 154 153 151 155 156 158 161 163 157 140 153 153 159 161 165 159 160 161 174 180 193 208 221 223 216 212 227 232 253 262 253 216 255 257 259 268 276 278 271 271 267 275 271 269 270 267 270 269 278 285 287 294 298 296 300 311 316 317 315 315 314 314 317 319 321 322 324
155 147 148 155 151 153 158 155 152 152 152 150 148 147 148 149 147 146 155 158 159 156 157 159 161 165 164 166 159 163 168 164 169 178 175 183 183 185 202 205 218 227 219 222 225 232 240 248 259 237 242 258 268 274 272 283 280 266 256 261 272 276 273 265 258 265 272 278 283 287 287 288 300 310 313 314 311 311 312 313 316 318 319 321 322
151 158 154 162 167 158 154 154 150 147 149 154 154 152 149 145 144 148 152 154 150 149 151 161 166 176 171 168 169 171 175 177 184 177 180 190 179 197 202 211 212 219 226 225 225 232 241 251 254 272 241 245 271 257 247 253 275 288 285 266 255 254 258 264 258 255 252 264 272 272 268 282 298 306 310 309 306 308 309 311 314 316 318 319 319
160 158 162 160 168 164 157 155 157 157 152 153 153 150 154 155 149 152 155 151 141 138 148 162 173 175 177 174 176 184 186 188 179 186 182 185 192 204 204 204 204 209 225 221 219 231 237 251 257 251 266 256 244 269 244 248 269 272 288 306 289 219 227 255 278 271 263 263 261 265 270 288 297 299 300 300 300 303 305 309 312 313 315 316 315
166 164 165 170 169 165 163 165 165 161 156 155 160 159 158 159 156 152 151 148 148 158 164 172 178 184 182 187 193 196 196 191 189 184 176 189 184 207 204 194 200 208 221 219 220 229 239 245 250 257 253 265 258 250 262 253 264 256 225 260 290 293 284 270 261 272 271 273 275 257 248 271 285 287 283 279 286 295 301 305 305 307 309 310 317
174 171 168 168 162 164 166 166 161 163 164 167 166 163 157 153 146 146 152 159 163 165 167 177 187 191 195 200 205 206 208 206 203 190 194 185 170 196 204 185 199 203 217 219 221 227 242 244 256 253 260 260 251 254 254 240 238 270 285 265 274 277 283 285 271 253 261 273 282 275 261 260 298 293 287 280 275 288 294 296 298 302 304 313 317
174 170 166 167 172 169 163 165 166 166 172 168 166 159 158 158 160 157 156 160 165 162 165 175 192 203 211 208 212 209 209 209 206 205 204 204 205 202 188 180 189 196 205 207 218 223 232 240 243 244 256 255 250 229 251 249 249 259 263 256 270 283 287 282 277 243 182 273 298 296 276 244 291 291 275 277 279 281 290 296 295 302 310 314 316
167 166 162 165 173 176 173 168 167 171 168 165 161 164 164 156 153 162 169 165 167 168 184 187 196 204 211 212 210 209 211 212 214 214 215 214 215 217 216 204 196 188 183 198 222 212 214 237 242 237 242 260 260 227 238 253 238 239 247 257 264 276 280 296 296 275 155 350 309 303 295 220 270 286 278 268 278 280 282 290 300 308 312 314 316
168 165 169 174 175 172 170 169 172 170 167 162 168 167 164 163 164 166 171 171 179 179 185 194 209 211 206 201 208 202 216 211 201 210 220 224 224 224 225 222 216 215 211 200 202 203 215 222 236 236 235 241 261 237 233 227 236 234 240 241 247 256 268 268 269 276 269 51 324 306 295 231 252 278 275 256 273 277 273 295 306 310 313 316 318
162 171 177 169 171 166 168 171 172 168 164 169 171 170 169 170 173 166 169 174 176 189 190 208 215 215 214 204 207 215 219 219 213 211 210 224 232 233 234 234 233 226 225 225 223 219 201 212 237 254 232 233 253 246 208 214 221 242 237 244 244 250 255 262 264 278 290 40 323 298 292 291 317 284 280 262 274 280 278 288 300 306 312 316 317
172 173 171 170 166 170 172 173 170 167 169 175 174 174 172 175 176 168 175 178 190 202 205 213 217 220 217 202 207 221 212 208 209 206 210 214 217 227 236 235 234 234 234 235 232 231 224 226 236 245 248 204 234 247 198 196 213 231 235 250 251 251 251 254 274 278 291 20 289 306 289 289 99 303 285 286 286 279 277 286 299 304 310 314 316
172 176 175 174 175 172 170 166 163 168 174 179 174 172 174 179 179 173 172 179 192 215 216 216 224 225 222 217 220 230 228 211 211 206 203 212 212 224 233 239 239 239 236 235 232 232 231 229 230 237 248 237 237 247 220 210 221 229 227 242 248 255 271 299 309 241 271 228 222 239 271 292 13 308 288 298 300 284 280 279 288 295 305 314 317
139 126 125 145 161 164 164 162 158 166 171 178 174 177 180 181 181 181 176 185 209 221 228 223 226 229 224 215 216 232 235 230 216 211 214 201 213 229 234 243 245 243 242 236 242 247 243 240 241 245 246 243 245 236 222 215 224 227 238 248 44 119 236 262 263 213 234 197 197 208 264 280 342 301 294 299 294 291 287 275 283 288 302 317 319
150 155 160 164 157 159 163 167 167 170 171 184 181 180 180 180 181 193 197 199 214 225 233 231 233 230 225 217 223 232 239 238 224 217 219 205 215 226 235 245 249 252 251 233 238 246 248 250 253 254 257 257 252 251 250 245 241 232 193 221 230 174 221 251 263 257 240 169 217 208 253 282 304 300 297 295 296 291 287 269 266 273 302 319 317
169 175 167 157 158 160 162 169 172 168 172 183 182 182 183 188 190 199 211 214 227 230 239 240 234 235 229 213 219 231 237 242 229 228 226 217 223 227 230 245 256 258 258 211 224 241 251 256 259 260 261 261 260 261 260 257 253 243 203 225 224 186 225 237 259 273 286 200 222 208 245 260 301 296 301 299 294 240 248 261 256 249 304 312 308
147 134 144 145 144 152 161 162 152 154 157 174 186 189 194 202 203 213 217 229 235 237 238 245 239 234 240 225 223 227 236 243 242 237 233 227 230 233 224 233 252 257 259 192 231 235 233 236 249 253 257 258 257 255 255 256 253 250 234 229 190 195 234 239 239 289 296 225 182 171 204 259 272 295 326 325 304 284 223 238 212 282 295 310 306